Regional Weather Roundup
Issued by NWS

Home | Current Version | Previous Version | Text Only | Print | Product List | Glossary On
Versions: 1 2 3 4 5 6 7 8 9 10 11 12 13 14 15 16 17 18 19 20 21 22 23 24 25 26 27 28 29 30 31 32 33 34 35 36 37 38 39 40 41 42 43 44 45 46 47 48 49 50
000
ASUS44 KEWX 271012
RWRTX
SOUTH TEXAS REGIONAL WEATHER ROUNDUP
NATIONAL WEATHER SERVICE AUSTIN/SAN ANTONIO TX
500 AM CDT MON MAR 27 2017

NOTE: "FAIR" INDICATED FEW OR NO CLOUDS BELOW 12,000 FEET WITH NO
SIGNIFICANT WEATHER AND/OR OBSTRUCTIONS TO VISIBILITY.

* - THESE STATIONS ARE NOT NWS OR FAA STATIONS...AND ARE NOT SUBJECT
    TO NWS AND FAA QUALITY CONTROL.

TXZ171-172-183>190-271100-
TEXAS HILL COUNTRY AND EDWARDS PLATEAU

CITY           SKY/WX    TMP DP  RH WIND       PRES   REMARKS
JUNCTION       CLEAR     63  60  90 CALM      29.84S
*LLANO         CLEAR     64  63  94 CALM      29.86R FOG
BURNET         CLOUDY    67  65  93 S8        29.85F FOG
*HORSESHOE BAY CLEAR     67  66  94 S5        29.83F FOG
*KERRVILLE     FOG       65  64  96 S3        29.86S VSB 1
*FREDERICKSBRG MOCLDY    64  62  93 CALM      29.86S FOG
*ROCKSPRINGS   CLEAR     64  63  94 CALM      29.90S FOG
*BOERNE STAGE    N/A     68  64  88 CALM      29.88R
*CASTROVILLE   CLOUDY    71  68  92 SE5       29.86R
HONDO          CLOUDY    73  68  84 NE5       29.84S
*UVALDE        CLOUDY    69  67  92 CALM      29.85R FOG
DEL RIO        CLOUDY    71  66  84 NE6       29.83S
LAUGHLIN AFB   MOCLDY    70  68  94 NE6       29.84R
CARRIZO SPRGS  MOCLDY    66  66 100 N3        29.79R FOG
*EAGLE PASS    CLOUDY    70  66  88 NE6       29.82R
$$

TXZ173-191>194-202-209-217>225-228-271100-
CENTRAL AND SOUTH CENTRAL TEXAS

CITY           SKY/WX    TMP DP  RH WIND       PRES   REMARKS
GEORGETOWN     MOCLDY    70  64  83 S6        29.82S
AUSTIN/BERGSTM MOCLDY    70  66  87 S12       29.82F
AUSTIN/MABRY   CLOUDY    71  66  84 S5        29.84S
*AUSTIN/EXEC     N/A    N/A N/A N/A MISG        N/A
*LAGO VISTA    CLOUDY    68  67  97 S6        29.85S FOG
SAN MARCOS     MOCLDY    68  64  88 S9        29.84F
NEW BRAUNFELS  CLOUDY    70  66  87 S6        29.84R
RANDOLPH AFB   CLOUDY    68  68 100 E5        29.85R
PT SAN ANTONIO CLOUDY    70  67  88 SE5       29.83R
SAN ANTONIO    CLOUDY    70  66  87 SE7       29.85R
STINSON FIELD  CLOUDY    71  66  84 E5        29.83R
*PLEASANTON    CLOUDY    68  66  93 N5        29.83R
*LA GRANGE     CLOUDY    70  68  95 CALM      29.83F
*GIDDINGS      PTCLDY    68  65  90 S5        29.85F
*GONZALES      CLOUDY    70  70  99 CALM      29.83S
$$

TXZ163>164-176>182-195>201-210>213-226-227-235-271100-
SOUTHEAST TEXAS

CITY           SKY/WX    TMP DP  RH WIND       PRES   REMARKS
COLLEGE STN    CLEAR     68  67  96 S9        29.83F
*BRYAN         CLEAR     67  67 100 S7        29.84F
*CALDWELL      NOT AVBL
*CROCKETT      CLEAR     66  64  94 S8        29.85F
*BRENHAM       MOCLDY    70  68  93 CALM      29.86S
HUNTSVILLE     PTCLDY    70  65  84 S10       29.84F
CONROE         CLOUDY    67  66  97 SE7       29.86F
HOUSTON BUSH   CLOUDY    72  69  90 CALM      29.86S
HOUSTON HOBBY  CLOUDY    72  69  90 S8        29.85F
*HOUSTON SW AP CLOUDY    68  67  95 CALM      29.85F FOG
PEARLAND       CLOUDY    75  70  84 S6        29.86F
HOUSTON HOOKS  CLOUDY    71  68  90 SE5       29.86F
ELLINGTON FLD  MOCLDY    72  70  94 SE6       29.88
SUGAR LAND     CLOUDY    71  69  93 SE8       29.84F
*HOUSTON EXEC  CLOUDY    68  68 100 CALM      29.87R FOG
*CLEVELAND MUN CLOUDY    67  66  96 CALM      29.88F FOG
*WHARTON       PTCLDY    68  67  94 E3        29.84F FOG
*COLUMBUS      CLOUDY    67  65  94 CALM      29.85S FOG
*EAGLE LAKE    CLOUDY    68  68  99 S5        29.84S FOG
$$

TXZ214>216-236>238-271100-
THE UPPER TEXAS COAST

CITY           SKY/WX    TMP DP  RH WIND       PRES   REMARKS
*ORANGE        CLOUDY    72  71  95 S5        29.92R
PORT ARTHUR    CLOUDY    72  69  90 VRB3      29.89R
GALVESTON      CLOUDY    73  72  96 SE10      29.86F
ANGLETON       CLOUDY    72  70  93 S8        29.84F
*BAY CITY      CLOUDY    72  71  99 SE3       29.84F FOG
PALACIOS       CLOUDY    72  70  93 SE10      29.82F
$$

TXZ229>234-239>247-271100-
TEXAS COASTAL BEND AND RIO GRANDE PLAINS

CITY           SKY/WX    TMP DP  RH WIND       PRES   REMARKS
VICTORIA       CLOUDY    69  67  93 SE7       29.82F FOG
*BEEVILLE      CLEAR    N/A N/A N/A SE9       29.78F
ROCKPORT       CLOUDY    72  70  93 SE8       29.81F
*PORT ARANSAS  CLOUDY    70  69  97 E5        29.82R FOG
*PORT LAVACA   PTCLDY    69  69 100 CALM      29.82F
*INGLESIDE     CLOUDY    73  71  93 E6        29.81S
CORPUS CHRISTI MOCLDY    72  70  93 SE10      29.80S
CORPUS NAS     CLOUDY   N/A N/A N/A SE9       29.81R
*ROBSTOWN      CLEAR     71  71 100 CALM      29.79F
ALICE          FOG       67  67 100 E7        29.77F VSB 3/4
KINGSVILLE NAS CLOUDY    68  68 100 E7        29.78F FOG
COTULLA        CLEAR     70  66  87 SE7       29.78R
*FAITH RANCH   CLOUDY    72  68  88 E6        29.79R
LAREDO         CLEAR     69  66  90 E9        29.76F
$$

TXZ248>255-271100-
DEEP SOUTH TEXAS

CITY           SKY/WX    TMP DP  RH WIND       PRES   REMARKS
BROWNSVILLE    CLOUDY    73  70  90 SE7       29.77F
PORT ISABEL    CLEAR     73  70  90 S12       29.76F
*SOUTH PADRE   NOT AVBL
HARLINGEN      CLEAR     71  70  96 S14       29.75S
*HEBBRONVILLE  CLEAR     65  63  95 SE6       29.78S
MCALLEN        CLEAR     72  68  87 SE10      29.75F
*WESLACO       CLEAR     70  68  92 S7        29.75S
FALFURRIAS     CLEAR     66  65  96 NE5       29.78S
EDINBURG       CLEAR     70  67  90 SE3       29.76S
*ZAPATA        MOCLDY    68  67  94 E5        29.75S
$$

TXZ213>215-236>238-242>244-246-247-251-254-255-271100-
CMAN STATIONS

STATION/POSITION TIME  TEMP    WIND        PRES    WAVE
                       AIR SEA DIR/SP/G            HT/PER
                 (UTC) (F)     (DEG/KT/KT) (MB)    (FT/S)
SABINE PASS      0948   72 74  160/ 11/ 14 1013.1
SEA RIM ST PARK  1000   72     170/ 12/ 14 1012.4
NORTH JETTY/GLS  0948      72  150/ 11/ 12   N/A
EAGLE POINT      0948   73 75  170/ 11/ 14 1011.1
MORGANS POINT    0948   74 75  180/  8/ 12 1011.4
MISSION/ARANSAS  0900   73                 1010.0
PORT O`CONNOR    0948   72     140/  9/ 12 1009.5
PORT ARANSAS     1000   71 73  100/  7/  7 1009.5
MALAQUITE BEACH  0948   72 74  100/  6/  7 1009.7
BAFFIN BAY       0948   72 74  100/  8/ 12 1008.8
PORT ISABEL      0948   74 75  150/ 12/ 14 1008.1
$$

GMZ080-GMZ150>470-271100-
OFFSHORE BUOY REPORTS

STATION/POSITION TIME  TEMP    WIND        PRES    WAVE
                       AIR SEA DIR/SP/G            HT/PER
                 (UTC) (F)     (DEG/KT/KT) (MB)    (FT/S)
20 E GALVESTON   0950   72 72  160/ 12/ 14 1011.3    3/ 6
90 E PT ARANSAS  0950   74 72  150/  8/ 10 1010.9    6/ 7
35 NE PT MANSFLD 0950   73     150/ 10/ 14 1008.0    6/ 8
200 E PT ISABEL  0950   76 77  140/ 14/ 16 1011.4    6/ 7
$$




USA.gov is the U.S. government's official web portal to all federal, state and local government web resources and services.